Погода в Токусиме

Япония     34°03′47″N   134°31′11″E
темп.,
°C
ветер,
м/с
пор.,
м/с
влажн.,
%
обл.,
%
осадки,
мм/ч
давл.,
гПа
погр.,
м
20 апреля, вт
вт2000:00+10зюз22610 0.0 101731
03:00+9зюз22580 0.0 101828
06:00+9з22530 0.0 101925
09:00+17св11364 0.0 1019431
12:00+20всв23340 0.0 1019883
15:00+19в214298 0.0 1018593
18:00+16ю1166100 0.0 101819
21:00+14з2257100 0.0 102123
21 апреля, ср
ср2100:00+12зсз23515 0.0 102233
03:00+11сз336430 0.0 102270
06:00+11сз23741 0.0 102366
09:00+17с23535 0.0 1023488
12:00+20ссв34384 0.0 1023891
15:00+21ссв33265 0.0 1021829
18:00+17сз11413 0.0 102112
21:00+13з22405 0.0 102217
22 апреля, чт
чт2200:00+12з32459 0.0 102324
03:00+12зсз334968 0.0 102133
06:00+11зсз224883 0.0 102137
09:00+18с2236100 0.0 1021311
12:00+20с2333100 0.0 1020608
15:00+21ссв352925 0.0 1018920
18:00+17ссз2246100 0.0 101820
21:00+14зсз224535 0.0 101924
23 апреля, пт
пт2300:00+13зсз334899 0.0 101941
03:00+12зсз334899 0.0 101849
06:00+12сз2251100 0.0 101954
09:00+16юв2448100 0.0 1020506
12:00+16ююв5876100 0.1 1020855
15:00+16ююв477699 0.4 1020728
18:00+14ю2486100 0.2 1020266
21:00+12ююз3594100 0.4 1021147
24 апреля, сб
сб2400:00+12ю249496 0.0 1020112
03:00+12ююз249294 0.0 1019104
06:00+12ююз239012 0.0 101978
09:00+17ююв347063 0.0 1020863
12:00+19ююв446188 0.1 10191152
15:00+18ю336887 1.0 1017822
18:00+14зюз239099 2.1 101886
21:00+13ююз1190100 2.3 101828